Погода в Халапе

Мексика     17°43′05″N   92°48′40″W
темп.,
°C
ветер,
м/с
пор.,
м/с
влажн.,
%
обл.,
%
осадки,
мм/ч
давл.,
гПа
погр.,
м
4 декабря, сб
сб400:00+21в12955 0.9 101623
03:00+21юв1295100 0.0 101433
06:00+21ююз00941 0.0 101511
09:00+24в348720 0.0 1017439
12:00+27в567520 0.0 1015984
15:00+28всв57750 0.0 1013907
18:00+24всв36840 0.0 1015105
21:00+22св23893 0.3 101766
5 декабря, вс
вс500:00+21в36941 0.3 1016146
03:00+21в22960 0.0 101547
06:00+20вюв11960 0.0 101535
09:00+24вюв128721 0.0 1017357
12:00+27в457572 0.0 10141049
15:00+28в467716 0.1 1011958
18:00+24всв37860 0.1 1012152
21:00+23в22910 0.0 101440
6 декабря, пн
пн600:00+21всв35910 0.0 1015124
03:00+21в11910 0.0 101423
06:00+20ююв11930 0.0 101413
09:00+24зсз11836 0.0 1016277
12:00+27всв11710 0.0 1014727
15:00+28в22720 0.0 1011803
18:00+25юв11850 0.0 101211
21:00+24ююв11910 0.0 101311
7 декабря, вт
вт700:00+22св22930 0.0 101330
03:00+21вюв11950 0.0 101227
06:00+21ю00967 0.0 101212
09:00+24зюз118837 0.0 1014329
12:00+27ссв127337 0.0 1012954
15:00+28ююв126932 0.0 1009932
18:00+25юз22820 0.1 101016
21:00+23ююв11890 0.0 101111
8 декабря, ср
ср800:00+22св01910 0.0 101111
03:00+21ююз11935 0.0 101011
06:00+21юз11940 0.0 101113
09:00+24ю118614 0.0 1013277
12:00+28всв11756 0.0 1012655
15:00+29в2273100 0.0 1010804
18:00+25вюв33865 0.0 101042
21:00+24юв33894 0.0 101143